Hauptseite
METAR-TAF:

METAR-TAF

Flughäfen :

Heeresflugplatz Altenstadt

Altenstadt, Deutschland

Breite: 47-50N, Länge: 010-52E, Höhe: 739 m

Beobachtung

Neuester Wetterbericht von vor 1 Stunde und 0 Minuten, um 03:20 UTC
Wind 4 kt aus Ost/Nordost
Temperatur -4°C
Luftfeuchtigkeit 100%
Luftdruck 1015 hPa

METAR: ETHA 210320Z AUTO 06004KT //// // ////// M04/M04 Q1015 ///

Zeit: 05:20 (04:20 UTC)


TAF: fehlend

Wetterbeobachtungen und Prognosen von mehr als 4000 Flughäfen (METAR und TAF Bericht).

Die verfügbaren Stationen werden durch gelbe und rote Markierungen auf der Karte dargestellt.

Führen Sie die Maus auf sie, um den Namen der Station zu sehen.

Darauf klicken, um die Beobachtung von Wetterbeobachtungen und Prognosen zu sehen.

Um die Karte zu ändern : klicken Sie auf den grünen Tasten mit einem schwarzen Kreuz Zum Vergrößern, auf den grünen Button mit einem Gedankenstrich zu verkleinern, oder auf die grünen Pfeile für benachbarte Karten.


METAR-TAF: